CW8443 Weather Reports


Display with metric or nautical units.
time (UTC)temp
F
wind
direction
speed
MPH
gust
MPH
rain 1hr
in
rain 24hr
in
rain mn
in
humidity
%
barometer
mb
20260903182748 73 357 0.0 0.0 0.00 0.00 0.00 83 1005.5
20260903182237 73 358 0.0 0.0 0.00 0.00 0.00 83 1005.5
20260903181733 73 358 0.0 0.0 0.00 0.00 0.00 83 1005.5
20260903181242 73 358 0.0 0.0 0.00 0.00 0.00 83 1005.3
20260903180740 73 357 0.0 0.0 0.00 0.00 0.00 83 1005.3
20260903180255 73 358 0.0 0.0 0.00 0.00 0.00 83 1005.3
20260903174751 73 358 0.0 0.0 0.00 0.00 0.00 83 1005.4
20260903174238 73 358 0.0 0.0 0.00 0.00 0.00 83 1004.9
20260903173746 73 358 0.0 0.0 0.00 0.00 0.00 83 1004.9
20260903173131 73 357 0.0 0.0 0.00 0.00 0.00 82 1004.9
20260903172749 73 358 0.0 0.0 0.00 0.00 0.00 82 1005.2
20260903172235 73 357 0.0 0.0 0.00 0.00 0.00 82 1005.2
20260903171243 73 358 0.0 0.0 0.00 0.00 0.00 82 1005.1
20260903170128 73 358 0.0 0.0 0.00 0.00 0.00 82 1005.1
20260903165747 73 358 0.0 0.0 0.00 0.00 0.00 82 1005.2
20260903165235 73 358 0.0 0.0 0.00 0.00 0.00 82 1005.2
20260903164743 73 358 0.0 0.0 0.00 0.00 0.00 82 1005.2
20260903164250 73 358 0.0 0.0 0.00 0.00 0.00 82 1005.5
20260903163128 73 358 0.0 0.0 0.00 0.00 0.00 82 1005.5
20260903162749 73 360 0.0 0.0 0.00 0.00 0.00 82 1005.0
20260903162237 73 358 0.0 0.0 0.00 0.00 0.00 82 1005.0
20260903161748 73 358 0.0 0.0 0.00 0.00 0.00 81 1005.0
20260903161236 73 358 0.0 0.0 0.00 0.00 0.00 81 1005.2
20260903160748 73 358 0.0 0.0 0.00 0.00 0.00 81 1005.2
20260903160240 73 358 0.0 0.0 0.00 0.00 0.00 81 1005.2
20260903160128 73 358 0.0 0.0 0.00 0.00 0.00 81 1005.2
20260903155745 73 358 0.0 0.0 0.00 0.00 0.00 81 1005.3
20260903155235 73 358 0.0 0.0 0.00 0.00 0.00 81 1005.3
20260903154749 73 360 0.0 0.0 0.00 0.00 0.00 81 1005.3
20260903154238 73 358 0.0 0.0 0.00 0.00 0.00 81 1005.3
20260903153747 73 360 0.0 0.0 0.00 0.00 0.00 80 1005.3
20260903153246 74 1 0.0 0.0 0.00 0.00 0.00 80 1005.3
20260903153130 74 1 0.0 0.0 0.00 0.00 0.00 80 1005.3
20260903152755 74 1 0.0 0.0 0.00 0.00 0.00 80 1005.5
20260903151744 74 357 0.0 0.0 0.00 0.00 0.00 78 1005.5
20260903151250 74 350 0.0 0.0 0.00 0.00 0.00 77 1005.4
20260903150746 75 341 1.0 0.0 0.00 0.00 0.00 77 1005.4
20260903150245 75 324 1.0 0.0 0.00 0.00 0.00 75 1005.4
20260903150128 75 334 1.0 0.0 0.00 0.00 0.00 74 1005.4
20260903145244 76 331 0.0 0.0 0.00 0.00 0.00 71 1005.0
20260903144739 76 166 0.0 0.0 0.00 0.00 0.00 70 1005.0
20260903144253 76 166 0.0 0.0 0.00 0.00 0.00 70 1004.9
20260903143742 76 166 0.0 0.0 0.00 0.00 0.00 70 1004.9
20260903143243 76 166 0.0 0.0 0.00 0.00 0.00 70 1004.9
20260903143147 76 166 0.0 0.0 0.00 0.00 0.00 70 1004.9
20260903142745 76 166 0.0 0.0 0.00 0.00 0.00 70 1004.9
20260903141749 76 178 1.0 0.0 0.00 0.00 0.00 69 1004.9
20260903141237 76 176 1.0 0.0 0.00 0.00 0.00 69 1005.0
20260903140753 76 187 1.0 0.0 0.00 0.00 0.00 69 1005.0
20260903140253 76 206 0.0 0.0 0.00 0.00 0.00 70 1005.0
20260903135738 76 207 1.0 0.0 0.00 0.00 0.00 70 1005.0
20260903135246 76 213 1.0 0.0 0.00 0.00 0.00 70 1005.0
20260903134739 76 220 0.0 0.0 0.00 0.00 0.00 70 1005.0
20260903133736 75 186 1.0 0.0 0.00 0.00 0.00 70 1005.2
20260903133253 75 173 2.0 0.0 0.00 0.00 0.00 71 1005.2
20260903132742 75 154 1.0 0.0 0.00 0.00 0.00 71 1005.4
20260903132254 75 168 0.0 0.0 0.00 0.00 0.00 71 1005.4
20260903131749 75 176 0.0 0.0 0.00 0.00 0.00 72 1005.4
20260903131238 75 176 0.0 0.0 0.00 0.00 0.00 72 1005.9
20260903130748 75 173 0.0 0.0 0.00 0.00 0.00 72 1005.9
20260903130247 75 172 0.0 0.0 0.00 0.00 0.00 72 1005.9
20260903125250 75 172 1.0 0.0 0.00 0.00 0.00 72 1006.1
20260903124750 75 165 2.0 0.0 0.00 0.00 0.00 71 1006.1
20260903124239 75 142 2.0 0.0 0.00 0.00 0.00 71 1006.4
20260903123750 75 172 1.0 0.0 0.00 0.00 0.00 71 1006.4
20260903123245 75 139 1.0 0.0 0.00 0.00 0.00 71 1006.4
20260903123128 75 151 1.0 0.0 0.00 0.00 0.00 71 1006.4
20260903122243 76 142 0.0 0.0 0.00 0.00 0.00 70 1007.0
20260903121737 76 142 0.0 0.0 0.00 0.00 0.00 69 1007.0
20260903121245 76 142 0.0 0.0 0.00 0.00 0.00 70 1007.3
20260903120735 76 142 0.0 0.0 0.00 0.00 0.00 70 1007.3
20260903120139 76 142 0.0 0.0 0.00 0.00 0.00 69 1007.3
20260903115739 76 142 0.0 0.0 0.00 0.00 0.00 69 1007.4
20260903115250 76 142 0.0 0.0 0.00 0.00 0.00 69 1007.4
20260903114741 76 142 0.0 0.0 0.00 0.00 0.00 69 1007.4
20260903113243 75 142 0.0 0.0 0.00 0.00 0.00 69 1007.2
20260903113126 75 142 0.0 0.0 0.00 0.00 0.00 69 1007.2
20260903112741 75 142 0.0 0.0 0.00 0.00 0.00 69 1006.9
20260903112248 76 42 0.0 0.0 0.00 0.00 0.00 70 1006.9
20260903111740 76 41 0.0 0.0 0.00 0.00 0.00 70 1006.9
20260903111254 75 41 0.0 0.0 0.00 0.00 0.00 70 1006.8
20260903110254 75 355 0.0 0.0 0.00 0.00 0.00 70 1006.8
20260903110138 75 357 0.0 0.0 0.00 0.00 0.00 70 1006.8
20260903105740 75 357 0.0 0.0 0.00 0.00 0.00 70 1006.8
20260903105253 75 357 0.0 0.0 0.00 0.00 0.00 70 1006.8
20260903104747 75 357 0.0 0.0 0.00 0.00 0.00 70 1006.8
20260903103744 75 357 0.0 0.0 0.00 0.00 0.00 70 1006.5
20260903103251 75 357 0.0 0.0 0.00 0.00 0.00 70 1006.5
20260903103135 75 357 0.0 0.0 0.00 0.00 0.00 70 1006.5
20260903102735 75 357 0.0 0.0 0.00 0.00 0.00 70 1006.4
20260903102245 75 357 0.0 0.0 0.00 0.00 0.00 70 1006.4
20260903101739 75 357 0.0 0.0 0.00 0.00 0.00 70 1006.4
20260903101253 75 357 0.0 0.0 0.00 0.00 0.00 70 1006.2
20260903100753 75 357 0.0 0.0 0.00 0.00 0.00 70 1006.2
20260903100253 75 357 0.0 0.0 0.00 0.00 0.00 70 1006.2
20260903100137 75 357 0.0 0.0 0.00 0.00 0.00 70 1006.2
20260903094748 75 357 0.0 0.0 0.00 0.00 0.00 70 1006.4
20260903094238 75 357 0.0 0.0 0.00 0.00 0.00 70 1006.4
20260903093751 75 357 0.0 0.0 0.00 0.00 0.00 70 1006.4
20260903093139 75 357 0.0 0.0 0.00 0.00 0.00 69 1006.4
20260903092740 75 357 0.0 0.0 0.00 0.00 0.00 69 1006.4
20260903092252 76 358 0.0 0.0 0.00 0.00 0.00 69 1006.4
20260903091750 76 357 0.0 0.0 0.00 0.00 0.00 69 1006.4
20260903090744 76 354 0.0 0.0 0.00 0.00 0.00 68 1005.9
20260903090238 76 25 0.0 0.0 0.00 0.00 0.00 68 1005.9
20260903090142 76 25 0.0 0.0 0.00 0.00 0.00 68 1005.9
20260903085746 76 15 0.0 0.0 0.00 0.00 0.00 68 1006.7
20260903085235 76 15 0.0 0.0 0.00 0.00 0.00 68 1006.7
20260903084753 76 1 0.0 0.0 0.00 0.00 0.00 68 1006.7
20260903084243 76 1 0.0 0.0 0.00 0.00 0.00 68 1006.5
20260903083735 76 10 0.0 0.0 0.00 0.00 0.00 67 1006.5
20260903083255 76 8 1.0 0.0 0.00 0.00 0.00 67 1006.5
20260903083139 76 21 1.0 0.0 0.00 0.00 0.00 67 1006.5
20260903082739 76 28 1.0 0.0 0.00 0.00 0.00 66 1007.0
20260903082251 76 19 1.0 0.0 0.00 0.00 0.00 66 1007.0
20260903081239 77 341 0.0 0.0 0.00 0.00 0.00 65 1007.7
20260903080752 77 331 0.0 0.0 0.00 0.00 0.00 64 1007.7
20260903080253 77 324 0.0 0.0 0.00 0.00 0.00 65 1007.7
20260903080138 77 323 0.0 0.0 0.00 0.00 0.00 65 1007.7
20260903075739 77 324 0.0 0.0 0.00 0.00 0.00 64 1007.4
20260903075253 77 326 0.0 0.0 0.00 0.00 0.00 65 1007.4
20260903074750 77 327 1.0 0.0 0.00 0.00 0.00 64 1007.4
20260903074238 77 310 3.0 0.0 0.00 0.00 0.00 64 1005.7
20260903073753 77 22 3.0 0.0 0.00 0.00 0.00 64 1005.7
20260903073254 77 59 3.0 0.0 0.00 0.00 0.00 64 1005.7
20260903073138 77 38 3.0 0.0 0.00 0.00 0.00 64 1005.7
20260903072738 77 46 2.0 0.0 0.00 0.00 0.00 64 1007.5
20260903072252 78 15 2.0 0.0 0.00 0.00 0.00 65 1007.5
20260903071745 78 341 2.0 0.0 0.00 0.00 0.00 65 1007.5
20260903071237 78 333 2.0 0.0 0.00 0.00 0.00 66 1007.5
20260903070751 78 14 2.0 0.0 0.00 0.00 0.00 66 1007.5
20260903070254 78 31 1.0 0.0 0.00 0.00 0.00 66 1007.5
20260903065740 78 360 1.0 0.0 0.00 0.00 0.00 66 1008.1
20260903064750 78 306 1.0 0.0 0.00 0.00 0.00 67 1008.1
20260903064238 78 34 3.0 0.0 0.00 0.00 0.00 66 1007.6
20260903063752 78 21 5.0 0.0 0.00 0.00 0.00 66 1007.6
20260903063247 78 39 5.0 0.0 0.00 0.00 0.00 65 1007.6
20260903063132 78 323 6.0 0.0 0.00 0.00 0.00 64 1007.6
20260903062748 79 17 6.0 0.0 0.00 0.00 0.00 64 1007.4
20260903062239 80 14 5.0 0.0 0.00 0.00 0.00 65 1007.4
20260903061251 81 11 4.0 0.0 0.00 0.00 0.00 66 1005.4
20260903060751 81 316 4.0 0.0 0.00 0.00 0.00 65 1005.4
20260903060248 82 333 3.0 0.0 0.00 0.00 0.00 65 1005.4
20260903060132 82 49 2.0 0.0 0.00 0.00 0.00 65 1005.4
20260903055239 83 333 1.0 0.0 0.00 0.00 0.00 68 1006.6
20260903053204 83 344 1.0 0.0 0.00 0.00 0.00 68 1006.6
20260903052233 84 331 0.0 0.0 0.00 0.00 0.00 68 1006.5
20260903051749 84 320 0.0 0.0 0.00 0.00 0.00 68 1006.5
20260903040748 85 333 2.0 0.0 0.00 0.00 0.00 65 1005.3
20260903040138 85 355 2.0 0.0 0.00 0.00 0.00 65 1005.3
20260903035740 85 29 2.0 0.0 0.00 0.00 0.00 62 1006.6
20260903035248 85 322 2.0 0.0 0.00 0.00 0.00 62 1006.6
20260903034741 86 299 0.0 0.0 0.00 0.00 0.00 62 1006.6
20260903034252 86 326 0.0 0.0 0.00 0.00 0.00 60 1006.5
20260903033742 86 324 0.0 0.0 0.00 0.00 0.00 60 1006.5
20260903033240 86 310 0.0 0.0 0.00 0.00 0.00 60 1006.5
20260903033144 87 310 0.0 0.0 0.00 0.00 0.00 60 1006.5
20260903032745 87 327 0.0 0.0 0.00 0.00 0.00 60 1006.4
20260903031235 86 21 0.0 0.0 0.00 0.00 0.00 59 1006.2
20260903030735 86 22 0.0 0.0 0.00 0.00 0.00 59 1006.2
20260903030250 86 29 0.0 0.0 0.00 0.00 0.00 59 1006.2
20260903025740 86 34 0.0 0.0 0.00 0.00 0.00 59 1006.2
20260903024751 86 31 0.0 0.0 0.00 0.00 0.00 60 1006.2
20260903024241 86 31 0.0 0.0 0.00 0.00 0.00 61 1006.4
20260903023750 85 31 0.0 0.0 0.00 0.00 0.00 60 1006.4
20260903023249 86 31 0.0 0.0 0.00 0.00 0.00 61 1006.4
20260903023132 86 31 0.0 0.0 0.00 0.00 0.00 60 1006.4
20260903022249 86 34 0.0 0.0 0.00 0.00 0.00 59 1006.3
20260903021739 86 34 0.0 0.0 0.00 0.00 0.00 59 1006.3
20260903021251 86 34 0.0 0.0 0.00 0.00 0.00 60 1006.5
20260903020744 86 32 0.0 0.0 0.00 0.00 0.00 60 1006.5
20260903020248 86 32 0.0 0.0 0.00 0.00 0.00 62 1006.5
20260903020132 86 32 0.0 0.0 0.00 0.00 0.00 61 1006.5
20260903015735 85 32 0.0 0.0 0.00 0.00 0.00 61 1006.5
20260903015245 85 31 0.0 0.0 0.00 0.00 0.00 62 1006.5
20260903014739 85 26 0.0 0.0 0.00 0.00 0.00 62 1006.5
20260903014250 85 19 0.0 0.0 0.00 0.00 0.00 61 1006.5
20260903013740 85 2 0.0 0.0 0.00 0.00 0.00 62 1006.5
20260903013238 84 10 0.0 0.0 0.00 0.00 0.00 62 1006.5
20260903013142 84 10 0.0 0.0 0.00 0.00 0.00 62 1006.5
20260903012745 84 351 0.0 0.0 0.00 0.00 0.00 62 1006.8
20260903012235 84 320 0.0 0.0 0.00 0.00 0.00 63 1006.8
20260903011752 84 266 0.0 0.0 0.00 0.00 0.00 64 1006.8
20260903010738 83 231 0.0 0.0 0.00 0.00 0.00 66 1006.8
20260903010142 82 221 0.0 0.0 0.00 0.00 0.00 67 1006.8
20260903005743 82 221 0.0 0.0 0.00 0.00 0.00 67 1006.9
20260903004748 82 223 0.0 0.0 0.00 0.00 0.00 68 1006.9
20260903003746 82 275 0.0 0.0 0.00 0.00 0.00 68 1006.9
20260903003131 82 276 0.0 0.0 0.00 0.00 0.00 69 1006.9
20260903002751 81 237 0.0 0.0 0.00 0.00 0.00 68 1006.5
20260903001739 81 122 0.0 0.0 0.00 0.00 0.00 69 1006.5
20260903001247 81 114 0.0 0.0 0.00 0.00 0.00 69 1006.9
20260903000742 81 148 0.0 0.0 0.00 0.00 0.00 69 1006.9
20260903000241 81 146 0.0 0.0 0.00 0.00 0.00 70 1006.9
20260903000143 81 148 0.0 0.0 0.00 0.00 0.00 70 1006.9
20260902235236 81 168 0.0 0.0 0.00 0.00 0.00 71 1007.0
20260902234244 80 93 0.0 0.0 0.00 0.00 0.00 71 1006.9
20260902233253 80 242 0.0 0.0 0.00 0.00 0.00 74 1006.9
20260902233136 80 242 0.0 0.0 0.00 0.00 0.00 74 1006.9
20260902232737 80 242 0.0 0.0 0.00 0.00 0.00 74 1007.0
20260902232244 80 241 0.0 0.0 0.00 0.00 0.00 75 1007.0
20260902231736 79 242 0.0 0.0 0.00 0.00 0.00 76 1007.0
20260902231242 79 244 0.0 0.0 0.00 0.00 0.00 77 1006.9
20260902230754 79 244 0.0 0.0 0.00 0.00 0.00 77 1006.9
20260902230253 79 245 0.0 0.0 0.00 0.00 0.00 78 1006.9
20260902230137 79 244 0.0 0.0 0.00 0.00 0.00 78 1006.9
20260902224748 79 245 0.0 0.0 0.00 0.00 0.00 79 1007.0
20260902224238 78 245 0.0 0.0 0.00 0.00 0.00 80 1006.9
20260902223747 78 245 0.0 0.0 0.00 0.00 0.00 80 1006.9
20260902222735 78 245 0.0 0.0 0.00 0.00 0.00 80 1006.6
20260902222242 78 245 0.0 0.0 0.00 0.00 0.00 80 1006.6
20260902221753 77 245 0.0 0.0 0.00 0.00 0.00 81 1006.6
20260902221242 77 245 0.0 0.0 0.00 0.00 0.00 81 1006.4
20260902220254 77 245 0.0 0.0 0.00 0.00 0.00 82 1006.4
20260902215251 77 245 0.0 0.0 0.00 0.00 0.00 82 1006.7
20260902214743 77 245 0.0 0.0 0.00 0.00 0.00 82 1006.7
20260902214254 77 245 0.0 0.0 0.00 0.00 0.00 83 1006.8
20260902213743 77 245 0.0 0.0 0.00 0.00 0.00 83 1006.8
20260902213243 77 245 0.0 0.0 0.00 0.00 0.00 83 1006.8
20260902213126 77 245 0.0 0.0 0.00 0.00 0.00 83 1006.8
20260902212746 77 245 0.0 0.0 0.00 0.00 0.00 83 1006.8
20260902212254 77 245 0.0 0.0 0.00 0.00 0.00 84 1006.8
20260902211746 77 245 0.0 0.0 0.00 0.00 0.00 84 1006.8
20260902211236 77 245 0.0 0.0 0.00 0.00 0.00 84 1007.1
20260902210736 77 245 0.0 0.0 0.00 0.00 0.00 84 1007.1
20260902210249 77 245 0.0 0.0 0.00 0.00 0.00 84 1007.0
20260902205738 77 245 0.0 0.0 0.00 0.00 0.00 84 1006.9
20260902205248 77 245 0.0 0.0 0.00 0.00 0.00 84 1006.9
20260902204741 76 245 0.0 0.0 0.00 0.00 0.00 84 1006.9
20260902204252 76 245 0.0 0.0 0.00 0.00 0.00 84 1006.9
20260902203743 76 245 0.0 0.0 0.00 0.00 0.00 83 1006.9
20260902203243 77 245 0.0 0.0 0.00 0.00 0.00 83 1006.9
20260902203146 77 245 0.0 0.0 0.00 0.00 0.00 83 1006.9
20260902202749 77 245 0.0 0.0 0.00 0.00 0.00 83 1006.8
20260902202238 77 245 0.0 0.0 0.00 0.00 0.00 83 1006.8
20260902201745 77 245 0.0 0.0 0.00 0.00 0.00 83 1006.8
20260902200752 77 245 0.0 0.0 0.00 0.00 0.00 83 1006.9
20260902200248 77 245 0.0 0.0 0.00 0.00 0.00 83 1006.9
20260902200132 77 245 0.0 0.0 0.00 0.00 0.00 83 1006.9
20260902195249 77 245 0.0 0.0 0.00 0.00 0.00 83 1007.4
20260902194745 77 245 0.0 0.0 0.00 0.00 0.00 83 1007.4
20260902194252 77 245 0.0 0.0 0.00 0.00 0.00 83 1007.5
20260902193240 77 245 0.0 0.0 0.00 0.00 0.00 83 1007.5
20260902193128 77 245 0.0 0.0 0.00 0.00 0.00 83 1007.5
20260902192743 77 245 0.0 0.0 0.00 0.00 0.00 83 1007.6
20260902192250 77 245 0.0 0.0 0.00 0.00 0.00 83 1007.6
20260902191741 77 245 0.0 0.0 0.00 0.00 0.00 82 1007.6
20260902191249 77 245 0.0 0.0 0.00 0.00 0.00 82 1007.6
20260902190741 77 245 0.0 0.0 0.00 0.00 0.00 82 1007.6
20260902190240 77 245 0.0 0.0 0.00 0.00 0.00 82 1007.6
20260902190144 77 245 0.0 0.0 0.00 0.00 0.00 82 1007.6
20260902185745 77 245 0.0 0.0 0.00 0.00 0.00 82 1007.9
20260902185254 77 245 0.0 0.0 0.00 0.00 0.00 82 1007.9
20260902184746 77 245 0.0 0.0 0.00 0.00 0.00 82 1007.9
20260902184237 77 245 0.0 0.0 0.00 0.00 0.00 82 1007.5
20260902183742 77 245 0.0 0.0 0.00 0.00 0.00 82 1007.5
20260902183238 77 245 0.0 0.0 0.00 0.00 0.00 82 1007.5
20260902183142 77 245 0.0 0.0 0.00 0.00 0.00 82 1007.5
20260902182744 77 245 0.0 0.0 0.00 0.00 0.00 82 1007.5
20260902182252 77 245 0.0 0.0 0.00 0.00 0.00 82 1007.5
20260902181744 77 245 0.0 0.0 0.00 0.00 0.00 82 1007.5
20260902180739 77 245 0.0 0.0 0.00 0.00 0.00 82 1007.8
20260902180255 77 245 0.0 0.0 0.00 0.00 0.00 82 1007.8
20260902180139 77 245 0.0 0.0 0.00 0.00 0.00 82 1007.8
20260902175734 77 245 0.0 0.0 0.00 0.00 0.00 82 1008.0
20260902174742 77 245 0.0 0.0 0.00 0.00 0.00 81 1008.0
20260902174252 77 245 0.0 0.0 0.00 0.00 0.00 81 1008.4
20260902173740 77 245 0.0 0.0 0.00 0.00 0.00 81 1008.4
20260902173127 77 245 0.0 0.0 0.00 0.00 0.00 81 1008.4
20260902172747 77 245 0.0 0.0 0.00 0.00 0.00 81 1008.5
20260902172238 78 245 0.0 0.0 0.00 0.00 0.00 81 1008.5
20260902171749 78 245 0.0 0.0 0.00 0.00 0.00 81 1008.5
20260902171237 78 245 0.0 0.0 0.00 0.00 0.00 81 1008.5
20260902170746 78 245 0.0 0.0 0.00 0.00 0.00 81 1008.5
20260902170243 78 247 0.0 0.0 0.00 0.00 0.00 81 1008.5
20260902170127 78 247 0.0 0.0 0.00 0.00 0.00 81 1008.5
20260902165748 78 235 0.0 0.0 0.00 0.00 0.00 80 1008.5
20260902165240 78 158 0.0 0.0 0.00 0.00 0.00 80 1008.5
20260902164244 78 158 0.0 0.0 0.00 0.00 0.00 80 1008.5
20260902163751 78 158 0.0 0.0 0.00 0.00 0.00 80 1008.5
20260902163248 78 158 0.0 0.0 0.00 0.00 0.00 80 1008.5
20260902163132 78 158 0.0 0.0 0.00 0.00 0.00 80 1008.5
20260902162752 78 158 0.0 0.0 0.00 0.00 0.00 80 1008.5
20260902162240 78 158 0.0 0.0 0.00 0.00 0.00 80 1008.5
20260902161751 78 158 0.0 0.0 0.00 0.00 0.00 80 1008.5
20260902161240 78 158 0.0 0.0 0.00 0.00 0.00 80 1008.5
20260902160735 78 158 0.0 0.0 0.00 0.00 0.00 80 1008.5
20260902160252 78 156 0.0 0.0 0.00 0.00 0.00 80 1008.5
20260902160135 78 156 0.0 0.0 0.00 0.00 0.00 80 1008.5
20260902155737 78 156 0.0 0.0 0.00 0.00 0.00 80 1008.5
20260902155245 78 155 0.0 0.0 0.00 0.00 0.00 80 1008.5
20260902154737 78 155 0.0 0.0 0.00 0.00 0.00 79 1008.5
20260902154246 78 154 0.0 0.0 0.00 0.00 0.00 79 1008.6
20260902153734 78 180 0.0 0.0 0.00 0.00 0.00 79 1008.6
20260902153251 78 179 0.0 0.0 0.00 0.00 0.00 79 1008.6
20260902153134 78 179 0.0 0.0 0.00 0.00 0.00 79 1008.6
20260902152751 78 176 0.0 0.0 0.00 0.00 0.00 79 1008.6
20260902152240 78 173 0.0 0.0 0.00 0.00 0.00 79 1008.6
20260902151235 78 173 0.0 0.0 0.00 0.00 0.00 79 1008.6
20260902150750 78 173 0.0 0.0 0.00 0.00 0.00 79 1008.6
20260902150246 79 173 0.0 0.0 0.00 0.00 0.00 79 1008.6
20260902150130 79 173 0.0 0.0 0.00 0.00 0.00 79 1008.6
20260902145752 79 173 0.0 0.0 0.00 0.00 0.01 79 1009.0
20260902145239 79 169 0.0 0.0 0.00 0.00 0.01 79 1009.0
20260902144748 79 168 0.0 0.0 0.00 0.00 0.01 79 1009.0
20260902144238 79 169 0.0 0.0 0.00 0.00 0.01 79 1009.0
20260902143749 79 134 1.0 0.0 0.00 0.00 0.01 79 1009.0
20260902143249 79 134 1.0 0.0 0.00 0.00 0.01 79 1009.0
20260902143132 79 172 1.0 0.0 0.00 0.00 0.01 79 1009.0
20260902142751 79 186 1.0 0.0 0.00 0.00 0.01 79 1009.1
20260902142241 79 179 1.0 0.0 0.00 0.00 0.01 79 1009.1
20260902141248 79 124 0.0 0.0 0.00 0.00 0.01 79 1009.0
20260902140740 79 120 0.0 0.0 0.00 0.00 0.01 79 1009.0
20260902140131 79 151 0.0 0.0 0.00 0.00 0.01 79 1009.0
20260902135748 79 155 0.0 0.0 0.00 0.00 0.01 79 1009.0
20260902134244 79 142 1.0 0.0 0.00 0.00 0.01 79 1009.1
20260902133751 79 186 1.0 0.0 0.00 0.00 0.01 79 1009.1
20260902133249 79 182 1.0 0.0 0.00 0.00 0.01 79 1009.1
20260902133133 79 180 1.0 0.0 0.00 0.00 0.01 79 1009.1
20260902132753 79 183 1.0 0.0 0.00 0.00 0.01 78 1009.1
20260902132243 79 178 1.0 0.0 0.00 0.00 0.01 78 1009.1
20260902131737 79 172 0.0 0.0 0.00 0.00 0.01 78 1009.1
20260902131246 79 158 0.0 0.0 0.00 0.00 0.01 78 1009.3
20260902130735 79 170 0.0 0.0 0.00 0.00 0.01 78 1009.3
20260902130234 79 206 0.0 0.0 0.00 0.00 0.01 77 1009.3
20260902130140 79 206 0.0 0.0 0.00 0.00 0.01 77 1009.3
20260902125237 79 187 0.0 0.0 0.00 0.00 0.01 77 1009.3
20260902124751 79 185 0.0 0.0 0.00 0.00 0.01 77 1009.3
20260902124240 79 202 0.0 0.0 0.00 0.00 0.01 76 1009.5
20260902123753 79 196 0.0 0.0 0.00 0.00 0.01 76 1009.5
20260902123250 79 210 0.0 0.0 0.00 0.00 0.01 76 1009.5
20260902122736 79 209 0.0 0.0 0.00 0.00 0.01 75 1009.5
20260902122244 79 210 0.0 0.0 0.00 0.00 0.01 75 1009.5
20260902121755 79 209 0.0 0.0 0.00 0.00 0.01 75 1009.5
20260902121245 79 209 0.0 0.0 0.00 0.00 0.01 74 1009.6
20260902120744 80 209 0.0 0.0 0.00 0.00 0.01 74 1009.7
20260902120241 80 209 0.0 0.0 0.00 0.00 0.01 74 1009.7
20260902120145 80 207 0.0 0.0 0.00 0.00 0.01 74 1009.7
20260902115748 80 206 0.0 0.0 0.00 0.00 0.01 74 1009.5
20260902114755 80 193 1.0 0.0 0.00 0.00 0.01 74 1009.5
20260902114245 80 161 0.0 0.0 0.00 0.00 0.01 73 1009.6
20260902113755 80 152 1.0 0.0 0.00 0.00 0.01 73 1009.6
20260902113136 80 161 0.0 0.0 0.00 0.00 0.01 72 1009.6
20260902112250 80 170 0.0 0.0 0.00 0.00 0.01 71 1009.5
20260902111743 80 163 0.0 0.0 0.00 0.00 0.01 71 1009.5
20260902111252 80 159 1.0 0.0 0.00 0.00 0.01 71 1009.5
20260902110747 80 156 2.0 0.0 0.00 0.00 0.01 71 1009.5
20260902110250 80 170 1.0 0.0 0.00 0.00 0.01 71 1009.5
20260902110134 80 142 1.0 0.0 0.00 0.00 0.01 71 1009.5
20260902105737 80 187 1.0 0.0 0.00 0.00 0.01 71 1009.5
20260902104745 80 158 1.0 0.0 0.00 0.00 0.01 71 1009.5
20260902104254 80 155 1.0 0.0 0.00 0.00 0.01 71 1009.3
20260902103250 80 125 1.0 0.0 0.00 0.00 0.01 71 1009.3
20260902102739 81 114 1.0 0.0 0.00 0.00 0.01 71 1009.1
20260902102249 81 111 1.0 0.0 0.00 0.00 0.01 72 1009.1
20260902101744 81 179 0.0 0.0 0.00 0.00 0.01 72 1009.1
20260902100740 81 172 1.0 0.0 0.00 0.00 0.01 71 1008.9
20260902100256 81 187 1.0 0.0 0.00 0.00 0.01 71 1008.9
20260902095744 81 169 2.0 0.0 0.00 0.00 0.01 71 1008.7
20260902095254 81 182 2.0 0.0 0.00 0.00 0.01 71 1008.7
20260902094749 81 131 2.0 0.0 0.00 0.00 0.01 70 1008.7
20260902093736 81 179 1.0 0.0 0.00 0.00 0.01 69 1008.7
20260902092752 81 186 1.0 0.0 0.00 0.00 0.01 68 1008.7
20260902092242 81 203 2.0 0.0 0.00 0.00 0.01 68 1008.7
20260902091750 82 223 2.0 0.0 0.00 0.00 0.01 68 1008.7
20260902091242 82 206 3.0 0.0 0.00 0.00 0.01 67 1008.5
20260902090737 82 166 4.0 0.0 0.00 0.00 0.01 66 1008.5
20260902090255 82 207 4.0 0.0 0.00 0.00 0.01 66 1008.5
20260902090139 82 172 4.0 0.0 0.00 0.00 0.01 66 1008.5
20260902085738 82 159 5.0 0.0 0.00 0.00 0.01 66 1008.6
20260902085247 82 183 5.0 0.0 0.00 0.00 0.01 65 1008.6
20260902084740 83 183 3.0 0.0 0.00 0.00 0.01 65 1008.6
20260902084247 83 148 1.0 0.0 0.00 0.00 0.01 65 1008.6
20260902083755 83 179 2.0 0.0 0.00 0.00 0.01 65 1008.6
20260902083249 83 178 2.0 0.0 0.00 0.00 0.01 65 1008.6
20260902083137 83 168 2.0 0.0 0.00 0.00 0.01 65 1008.6
20260902082755 83 159 4.0 0.0 0.00 0.00 0.01 64 1008.6
20260902082243 84 158 4.0 0.0 0.00 0.00 0.01 62 1008.6
20260902081244 84 172 2.0 0.0 0.00 0.00 0.01 62 1008.6
20260902080736 84 186 4.0 0.0 0.00 0.00 0.01 61 1008.6
20260902080253 85 144 4.0 0.0 0.00 0.00 0.01 61 1008.6
20260902080136 85 185 3.0 0.0 0.00 0.00 0.01 61 1008.6
20260902075737 85 154 1.0 0.0 0.00 0.00 0.01 59 1008.5
20260902075245 85 166 0.0 0.0 0.00 0.00 0.01 58 1008.5
20260902074247 86 186 0.0 0.0 0.00 0.00 0.01 56 1008.4
20260902073754 86 186 0.0 0.0 0.00 0.00 0.01 56 1008.4
20260902073141 86 180 0.0 0.0 0.00 0.00 0.01 56 1008.4
20260902072741 86 178 0.0 0.0 0.00 0.00 0.01 56 1008.3
20260902072252 86 221 0.0 0.0 0.00 0.00 0.01 56 1008.3
20260902071745 87 173 0.0 0.0 0.00 0.00 0.01 56 1008.3
20260902071253 87 176 0.0 0.0 0.00 0.00 0.01 55 1008.2
20260902070745 87 186 0.0 0.0 0.00 0.00 0.01 56 1008.2
20260902070241 87 265 0.0 0.0 0.00 0.00 0.01 55 1008.2
20260902070128 87 162 0.0 0.0 0.00 0.00 0.01 55 1008.2
20260902065744 88 182 0.0 0.0 0.00 0.00 0.01 55 1008.1
20260902065252 88 117 0.0 0.0 0.00 0.00 0.01 54 1008.1
20260902064745 88 176 0.0 0.0 0.00 0.00 0.01 54 1008.1
20260902064254 88 170 0.0 0.0 0.00 0.00 0.01 54 1008.0
20260902063743 88 228 0.0 0.0 0.00 0.00 0.01 53 1008.0
20260902063241 89 168 0.0 0.0 0.00 0.00 0.01 52 1008.0
20260902063145 89 234 0.0 0.0 0.00 0.00 0.01 53 1008.0